Precipitable_Water
0.25 0.18 0.15 0.14 0.14 0.16 0.21 0.24 0.22 0.24 0.24 0.24 0.24 0.24 0.24 0.23 0.24 0.26 0.25 0.28 0.25 0.21 0.20 0.20 0.20 0.19 0.20 0.22 0.24 0.26 0.26 0.24 0.23 0.23 0.23 0.25 0.27 0.31 0.34 0.38 0.40 0.41 0.42 0.47 0.52 0.55 0.57 0.58 0.59 0.60 0.61 0.61 0.63 0.65 0.62 0.58 0.55 0.51 0.45 0.43 0.39 0.40 0.48 0.49 0.50 0.52 0.52 0.50 0.50 0.52 0.46 0.40 0.39 0.34 0.35 0.35 0.37 0.41 0.45 0.52 0.57 0.58 0.61 0.65 0.70 0.74
0.26 0.19 0.18 0.18 0.18 0.20 0.23 0.28 0.29 0.28 0.27 0.24 0.22 0.23 0.24 0.25 0.24 0.27 0.27 0.31 0.27 0.21 0.20 0.23 0.21 0.20 0.22 0.24 0.26 0.29 0.28 0.26 0.27 0.26 0.26 0.27 0.29 0.31 0.33 0.36 0.39 0.40 0.46 0.51 0.54 0.58 0.61 0.61 0.60 0.60 0.60 0.61 0.59 0.62 0.60 0.56 0.55 0.53 0.48 0.44 0.42 0.47 0.48 0.51 0.52 0.53 0.54 0.54 0.50 0.46 0.44 0.43 0.42 0.35 0.32 0.32 0.38 0.40 0.41 0.42 0.47 0.50 0.51 0.51 0.50 0.55
0.21 0.19 0.23 0.27 0.26 0.27 0.30 0.31 0.31 0.30 0.29 0.28 0.25 0.24 0.23 0.24 0.26 0.28 0.31 0.32 0.32 0.27 0.25 0.25 0.23 0.24 0.26 0.27 0.30 0.30 0.30 0.29 0.29 0.28 0.28 0.28 0.29 0.30 0.32 0.35 0.39 0.43 0.44 0.49 0.55 0.59 0.61 0.60 0.60 0.59 0.60 0.60 0.60 0.61 0.59 0.58 0.56 0.55 0.50 0.46 0.47 0.50 0.51 0.52 0.57 0.56 0.54 0.54 0.48 0.45 0.43 0.45 0.43 0.43 0.39 0.40 0.44 0.48 0.46 0.48 0.47 0.48 0.49 0.48 0.46 0.48
0.19 0.24 0.28 0.31 0.33 0.32 0.33 0.33 0.32 0.32 0.31 0.29 0.27 0.25 0.23 0.27 0.25 0.23 0.27 0.32 0.33 0.31 0.28 0.28 0.26 0.27 0.30 0.31 0.31 0.32 0.32 0.32 0.33 0.32 0.30 0.31 0.30 0.31 0.32 0.34 0.38 0.41 0.44 0.48 0.53 0.56 0.59 0.60 0.59 0.58 0.59 0.60 0.62 0.61 0.59 0.58 0.56 0.56 0.53 0.49 0.50 0.53 0.53 0.52 0.55 0.58 0.61 0.54 0.47 0.46 0.46 0.49 0.46 0.41 0.44 0.46 0.49 0.50 0.48 0.46 0.49 0.48 0.46 0.46 0.45 0.47
0.23 0.26 0.32 0.35 0.35 0.34 0.30 0.32 0.30 0.29 0.27 0.30 0.28 0.27 0.25 0.26 0.28 0.27 0.28 0.30 0.33 0.33 0.34 0.31 0.27 0.26 0.29 0.28 0.29 0.31 0.34 0.34 0.34 0.33 0.30 0.30 0.30 0.31 0.33 0.35 0.39 0.40 0.44 0.47 0.53 0.57 0.58 0.58 0.57 0.56 0.57 0.60 0.59 0.58 0.57 0.57 0.56 0.58 0.56 0.51 0.51 0.55 0.53 0.52 0.52 0.53 0.55 0.50 0.47 0.47 0.49 0.51 0.49 0.48 0.45 0.44 0.45 0.48 0.48 0.46 0.47 0.47 0.48 0.45 0.46 0.49
0.23 0.27 0.31 0.33 0.36 0.35 0.33 0.31 0.31 0.29 0.25 0.26 0.28 0.28 0.28 0.28 0.27 0.29 0.31 0.29 0.26 0.25 0.30 0.28 0.22 0.22 0.26 0.27 0.28 0.30 0.31 0.30 0.32 0.32 0.31 0.26 0.25 0.28 0.30 0.33 0.37 0.40 0.43 0.44 0.48 0.53 0.56 0.55 0.55 0.56 0.58 0.57 0.57 0.57 0.58 0.59 0.60 0.60 0.59 0.56 0.53 0.56 0.52 0.51 0.51 0.50 0.50 0.46 0.43 0.42 0.41 0.40 0.41 0.39 0.39 0.37 0.38 0.41 0.42 0.43 0.47 0.48 0.48 0.48 0.48 0.51
0.21 0.27 0.28 0.30 0.32 0.34 0.32 0.30 0.32 0.30 0.26 0.24 0.25 0.31 0.29 0.28 0.29 0.29 0.29 0.28 0.23 0.21 0.27 0.30 0.21 0.18 0.24 0.24 0.26 0.27 0.26 0.25 0.28 0.30 0.30 0.27 0.25 0.27 0.29 0.31 0.35 0.37 0.40 0.44 0.50 0.55 0.55 0.56 0.54 0.53 0.53 0.54 0.55 0.56 0.60 0.61 0.62 0.63 0.62 0.62 0.60 0.55 0.50 0.49 0.49 0.50 0.49 0.45 0.42 0.41 0.40 0.41 0.40 0.38 0.40 0.41 0.44 0.43 0.45 0.47 0.46 0.48 0.52 0.54 0.54 0.53
0.30 0.31 0.30 0.32 0.32 0.32 0.30 0.27 0.32 0.31 0.27 0.22 0.26 0.27 0.28 0.28 0.27 0.27 0.27 0.27 0.25 0.29 0.28 0.28 0.26 0.19 0.17 0.19 0.24 0.25 0.24 0.25 0.24 0.27 0.28 0.28 0.28 0.28 0.30 0.32 0.35 0.37 0.38 0.41 0.46 0.49 0.49 0.50 0.50 0.49 0.50 0.52 0.53 0.57 0.61 0.62 0.64 0.63 0.64 0.66 0.65 0.62 0.51 0.49 0.50 0.50 0.48 0.43 0.42 0.41 0.42 0.45 0.44 0.42 0.40 0.41 0.42 0.44 0.43 0.44 0.47 0.50 0.54 0.58 0.58 0.58
0.23 0.26 0.29 0.30 0.30 0.30 0.28 0.31 0.32 0.32 0.26 0.23 0.26 0.28 0.25 0.28 0.29 0.27 0.25 0.24 0.24 0.22 0.20 0.23 0.26 0.17 0.15 0.15 0.21 0.24 0.22 0.22 0.23 0.24 0.25 0.26 0.26 0.29 0.31 0.32 0.34 0.37 0.38 0.40 0.43 0.46 0.48 0.50 0.49 0.49 0.50 0.52 0.55 0.59 0.61 0.62 0.64 0.66 0.68 0.68 0.69 0.66 0.55 0.51 0.51 0.50 0.49 0.46 0.44 0.43 0.46 0.46 0.48 0.47 0.43 0.45 0.47 0.44 0.45 0.43 0.48 0.50 0.53 0.56 0.60 0.61
0.24 0.28 0.36 0.33 0.30 0.27 0.30 0.31 0.32 0.31 0.25 0.27 0.28 0.28 0.27 0.26 0.26 0.25 0.23 0.22 0.21 0.18 0.14 0.15 0.19 0.14 0.10 0.11 0.13 0.19 0.20 0.21 0.23 0.24 0.25 0.27 0.28 0.29 0.31 0.33 0.34 0.36 0.39 0.41 0.41 0.42 0.45 0.47 0.50 0.52 0.52 0.56 0.57 0.59 0.63 0.65 0.67 0.68 0.69 0.69 0.69 0.67 0.58 0.54 0.53 0.53 0.51 0.50 0.47 0.47 0.49 0.47 0.48 0.47 0.45 0.46 0.46 0.45 0.44 0.41 0.46 0.49 0.51 0.52 0.56 0.58
0.24 0.28 0.33 0.31 0.29 0.31 0.31 0.31 0.30 0.29 0.28 0.29 0.26 0.24 0.24 0.24 0.23 0.22 0.21 0.20 0.18 0.15 0.14 0.15 0.16 0.13 0.09 0.10 0.14 0.15 0.19 0.22 0.23 0.24 0.25 0.27 0.30 0.30 0.32 0.33 0.34 0.36 0.37 0.39 0.42 0.44 0.47 0.51 0.52 0.54 0.53 0.55 0.59 0.62 0.64 0.65 0.66 0.68 0.69 0.69 0.68 0.67 0.61 0.56 0.55 0.56 0.55 0.53 0.50 0.49 0.52 0.52 0.50 0.48 0.45 0.45 0.46 0.46 0.44 0.40 0.42 0.45 0.49 0.53 0.52 0.53
0.22 0.25 0.27 0.30 0.31 0.31 0.29 0.26 0.27 0.26 0.24 0.23 0.21 0.22 0.22 0.22 0.23 0.20 0.18 0.19 0.13 0.13 0.16 0.19 0.18 0.20 0.12 0.13 0.16 0.21 0.24 0.25 0.25 0.25 0.26 0.28 0.29 0.31 0.33 0.35 0.36 0.36 0.37 0.39 0.41 0.44 0.48 0.54 0.60 0.63 0.59 0.59 0.59 0.62 0.63 0.65 0.68 0.69 0.69 0.70 0.68 0.66 0.58 0.56 0.57 0.58 0.57 0.55 0.53 0.53 0.52 0.49 0.50 0.49 0.47 0.46 0.45 0.46 0.43 0.42 0.41 0.46 0.49 0.50 0.53 0.52
0.19 0.20 0.24 0.25 0.29 0.26 0.26 0.23 0.23 0.22 0.23 0.22 0.23 0.23 0.19 0.18 0.17 0.13 0.14 0.09 0.09 0.09 0.14 0.19 0.22 0.19 0.18 0.19 0.22 0.24 0.27 0.29 0.30 0.29 0.28 0.28 0.29 0.30 0.32 0.35 0.37 0.37 0.37 0.38 0.40 0.45 0.47 0.51 0.55 0.58 0.59 0.61 0.61 0.59 0.61 0.63 0.67 0.69 0.69 0.69 0.66 0.62 0.59 0.57 0.59 0.57 0.57 0.57 0.56 0.55 0.53 0.49 0.49 0.49 0.48 0.48 0.46 0.46 0.44 0.43 0.42 0.44 0.45 0.48 0.49 0.49
0.18 0.23 0.24 0.25 0.27 0.30 0.27 0.21 0.21 0.19 0.20 0.21 0.19 0.20 0.18 0.15 0.14 0.11 0.13 0.14 0.13 0.14 0.18 0.21 0.27 0.19 0.23 0.25 0.28 0.28 0.31 0.32 0.33 0.32 0.31 0.31 0.30 0.30 0.31 0.32 0.33 0.35 0.37 0.38 0.40 0.44 0.46 0.49 0.53 0.57 0.59 0.58 0.58 0.59 0.59 0.61 0.64 0.68 0.69 0.69 0.64 0.61 0.60 0.60 0.59 0.57 0.56 0.57 0.57 0.56 0.53 0.50 0.50 0.49 0.49 0.47 0.46 0.47 0.45 0.45 0.44 0.44 0.46 0.45 0.46 0.48
0.15 0.17 0.22 0.25 0.23 0.29 0.27 0.26 0.24 0.22 0.20 0.20 0.23 0.21 0.20 0.18 0.16 0.13 0.14 0.13 0.13 0.15 0.20 0.28 0.21 0.18 0.19 0.24 0.31 0.32 0.34 0.36 0.36 0.34 0.33 0.33 0.32 0.32 0.33 0.33 0.33 0.35 0.38 0.41 0.41 0.43 0.44 0.49 0.52 0.55 0.58 0.57 0.56 0.57 0.59 0.61 0.64 0.67 0.68 0.68 0.65 0.63 0.63 0.60 0.57 0.57 0.56 0.58 0.59 0.57 0.54 0.52 0.51 0.49 0.49 0.49 0.49 0.49 0.47 0.47 0.47 0.46 0.47 0.45 0.47 0.49
0.15 0.16 0.21 0.26 0.27 0.28 0.26 0.27 0.27 0.24 0.23 0.24 0.21 0.22 0.19 0.19 0.22 0.16 0.18 0.17 0.17 0.17 0.16 0.19 0.18 0.22 0.21 0.27 0.32 0.33 0.34 0.36 0.38 0.37 0.35 0.33 0.35 0.35 0.33 0.34 0.36 0.36 0.37 0.39 0.41 0.44 0.47 0.50 0.52 0.53 0.54 0.55 0.56 0.57 0.59 0.61 0.65 0.67 0.67 0.67 0.65 0.61 0.61 0.59 0.57 0.56 0.56 0.58 0.60 0.59 0.56 0.54 0.52 0.52 0.51 0.52 0.52 0.52 0.50 0.49 0.49 0.48 0.48 0.49 0.49 0.51
0.20 0.18 0.23 0.24 0.25 0.25 0.26 0.26 0.25 0.24 0.18 0.26 0.23 0.17 0.18 0.24 0.23 0.20 0.20 0.22 0.21 0.19 0.15 0.20 0.18 0.20 0.26 0.25 0.28 0.31 0.31 0.34 0.35 0.36 0.36 0.36 0.36 0.36 0.36 0.37 0.37 0.38 0.41 0.43 0.44 0.46 0.49 0.52 0.55 0.56 0.56 0.57 0.58 0.61 0.62 0.62 0.64 0.64 0.66 0.68 0.66 0.64 0.63 0.60 0.59 0.57 0.56 0.58 0.59 0.60 0.60 0.58 0.54 0.52 0.50 0.50 0.51 0.52 0.53 0.52 0.52 0.50 0.51 0.52 0.51 0.51
0.18 0.19 0.24 0.23 0.22 0.27 0.29 0.28 0.27 0.25 0.27 0.26 0.21 0.24 0.28 0.29 0.29 0.22 0.16 0.19 0.18 0.15 0.15 0.18 0.15 0.16 0.18 0.16 0.28 0.29 0.27 0.30 0.31 0.33 0.34 0.36 0.35 0.35 0.36 0.37 0.39 0.40 0.41 0.45 0.50 0.52 0.52 0.50 0.51 0.53 0.55 0.56 0.58 0.60 0.61 0.61 0.64 0.65 0.67 0.67 0.66 0.64 0.61 0.62 0.62 0.61 0.58 0.56 0.56 0.57 0.59 0.58 0.56 0.54 0.53 0.52 0.52 0.53 0.53 0.54 0.53 0.53 0.52 0.53 0.53 0.52
0.25 0.18 0.22 0.24 0.24 0.28 0.30 0.28 0.26 0.29 0.29 0.25 0.24 0.35 0.21 0.20 0.20 0.27 0.22 0.16 0.15 0.14 0.14 0.16 0.17 0.16 0.17 0.19 0.25 0.25 0.25 0.28 0.31 0.33 0.32 0.33 0.34 0.35 0.36 0.37 0.40 0.41 0.42 0.42 0.44 0.50 0.53 0.55 0.53 0.53 0.53 0.55 0.58 0.60 0.61 0.61 0.63 0.64 0.66 0.68 0.67 0.63 0.62 0.61 0.63 0.63 0.61 0.59 0.56 0.55 0.56 0.57 0.57 0.56 0.54 0.54 0.54 0.54 0.52 0.52 0.52 0.52 0.53 0.54 0.54 0.53
0.26 0.18 0.20 0.26 0.24 0.26 0.28 0.26 0.20 0.23 0.28 0.30 0.28 0.24 0.27 0.21 0.19 0.17 0.19 0.20 0.18 0.14 0.14 0.14 0.16 0.13 0.18 0.21 0.24 0.24 0.25 0.25 0.28 0.30 0.31 0.31 0.32 0.34 0.36 0.37 0.37 0.38 0.39 0.41 0.44 0.46 0.47 0.51 0.56 0.59 0.59 0.58 0.61 0.65 0.67 0.68 0.69 0.67 0.68 0.69 0.67 0.66 0.65 0.65 0.64 0.64 0.62 0.61 0.58 0.55 0.56 0.57 0.57 0.58 0.56 0.56 0.55 0.54 0.52 0.52 0.52 0.52 0.52 0.53 0.53 0.52
0.25 0.26 0.18 0.22 0.26 0.24 0.20 0.25 0.23 0.24 0.22 0.23 0.24 0.22 0.23 0.22 0.27 0.24 0.24 0.19 0.18 0.16 0.16 0.14 0.13 0.14 0.19 0.24 0.24 0.25 0.25 0.25 0.26 0.28 0.30 0.31 0.31 0.33 0.34 0.36 0.37 0.37 0.37 0.38 0.38 0.41 0.45 0.47 0.52 0.61 0.67 0.68 0.66 0.64 0.67 0.71 0.70 0.67 0.69 0.69 0.69 0.66 0.65 0.63 0.64 0.65 0.64 0.63 0.60 0.56 0.54 0.54 0.57 0.58 0.58 0.57 0.57 0.55 0.54 0.54 0.54 0.53 0.54 0.53 0.50 0.50
0.26 0.25 0.20 0.23 0.21 0.20 0.20 0.26 0.26 0.25 0.25 0.22 0.22 0.21 0.23 0.21 0.20 0.17 0.16 0.25 0.22 0.18 0.15 0.14 0.12 0.16 0.22 0.28 0.27 0.29 0.32 0.30 0.29 0.28 0.28 0.30 0.33 0.33 0.34 0.34 0.35 0.36 0.36 0.37 0.38 0.39 0.42 0.43 0.46 0.54 0.63 0.63 0.66 0.68 0.69 0.70 0.72 0.73 0.71 0.70 0.74 0.76 0.73 0.69 0.67 0.65 0.66 0.65 0.62 0.57 0.55 0.56 0.60 0.60 0.58 0.57 0.57 0.55 0.55 0.54 0.54 0.55 0.54 0.49 0.48 0.49
0.32 0.31 0.26 0.21 0.22 0.22 0.25 0.27 0.28 0.27 0.26 0.25 0.23 0.20 0.22 0.23 0.24 0.21 0.16 0.17 0.22 0.21 0.21 0.19 0.15 0.14 0.24 0.30 0.30 0.32 0.34 0.34 0.32 0.31 0.30 0.31 0.32 0.33 0.34 0.35 0.35 0.35 0.35 0.36 0.37 0.39 0.40 0.40 0.39 0.41 0.48 0.50 0.57 0.63 0.67 0.69 0.70 0.74 0.77 0.76 0.71 0.69 0.70 0.72 0.72 0.71 0.69 0.68 0.65 0.61 0.59 0.60 0.61 0.61 0.58 0.57 0.57 0.56 0.55 0.54 0.54 0.55 0.52 0.49 0.47 0.49
0.33 0.23 0.19 0.21 0.24 0.26 0.27 0.27 0.26 0.25 0.23 0.21 0.22 0.21 0.19 0.18 0.20 0.20 0.21 0.22 0.20 0.20 0.18 0.18 0.15 0.14 0.23 0.31 0.32 0.33 0.35 0.35 0.35 0.33 0.31 0.31 0.32 0.33 0.33 0.33 0.34 0.35 0.36 0.37 0.38 0.39 0.38 0.39 0.41 0.40 0.41 0.47 0.53 0.58 0.66 0.70 0.72 0.70 0.70 0.83 0.86 0.75 0.67 0.68 0.68 0.73 0.72 0.70 0.68 0.66 0.64 0.63 0.65 0.62 0.58 0.56 0.57 0.57 0.56 0.56 0.55 0.54 0.51 0.48 0.47 0.46
0.21 0.26 0.22 0.18 0.17 0.19 0.21 0.23 0.22 0.24 0.22 0.19 0.17 0.19 0.19 0.18 0.19 0.20 0.21 0.28 0.20 0.20 0.20 0.18 0.13 0.13 0.22 0.29 0.30 0.31 0.32 0.32 0.34 0.34 0.33 0.31 0.31 0.30 0.30 0.31 0.31 0.33 0.34 0.35 0.36 0.37 0.39 0.42 0.44 0.45 0.44 0.46 0.53 0.57 0.57 0.61 0.68 0.73 0.70 0.68 0.79 0.94 0.90 0.76 0.71 0.71 0.72 0.71 0.69 0.69 0.67 0.66 0.67 0.64 0.61 0.59 0.59 0.58 0.57 0.55 0.54 0.52 0.49 0.48 0.47 0.47
0.21 0.22 0.20 0.15 0.12 0.11 0.10 0.11 0.13 0.15 0.17 0.19 0.19 0.17 0.18 0.18 0.18 0.18 0.16 0.19 0.15 0.19 0.22 0.18 0.16 0.19 0.22 0.24 0.24 0.25 0.26 0.28 0.30 0.32 0.32 0.32 0.32 0.31 0.30 0.29 0.29 0.30 0.32 0.33 0.36 0.38 0.39 0.40 0.41 0.42 0.43 0.46 0.51 0.57 0.60 0.62 0.66 0.71 0.70 0.67 0.70 0.71 0.90 1.02 0.99 0.83 0.74 0.73 0.70 0.70 0.70 0.70 0.70 0.66 0.64 0.64 0.63 0.61 0.58 0.56 0.53 0.52 0.51 0.50 0.47 0.47
0.22 0.23 0.20 0.18 0.15 0.14 0.16 0.17 0.21 0.21 0.18 0.15 0.17 0.19 0.19 0.22 0.23 0.21 0.19 0.16 0.15 0.17 0.17 0.18 0.18 0.17 0.18 0.19 0.21 0.23 0.23 0.23 0.23 0.24 0.27 0.29 0.30 0.29 0.29 0.29 0.30 0.31 0.31 0.31 0.32 0.33 0.35 0.36 0.38 0.43 0.45 0.46 0.49 0.51 0.58 0.60 0.63 0.68 0.74 0.75 0.74 0.73 0.71 0.72 0.91 1.04 0.92 0.81 0.75 0.73 0.75 0.74 0.72 0.70 0.68 0.68 0.67 0.64 0.61 0.58 0.56 0.54 0.52 0.52 0.50 0.48
0.24 0.19 0.20 0.20 0.19 0.18 0.19 0.19 0.20 0.20 0.16 0.16 0.15 0.13 0.16 0.20 0.23 0.22 0.18 0.15 0.18 0.17 0.14 0.17 0.19 0.18 0.16 0.18 0.20 0.23 0.25 0.25 0.25 0.25 0.26 0.27 0.28 0.29 0.30 0.30 0.30 0.29 0.30 0.32 0.32 0.32 0.31 0.30 0.33 0.37 0.43 0.45 0.47 0.52 0.53 0.56 0.61 0.63 0.65 0.68 0.72 0.73 0.73 0.73 0.73 0.83 0.95 0.88 0.81 0.80 0.81 0.80 0.77 0.73 0.72 0.73 0.71 0.67 0.63 0.61 0.59 0.56 0.55 0.54 0.51 0.49
0.24 0.19 0.22 0.21 0.20 0.22 0.23 0.22 0.22 0.21 0.19 0.18 0.17 0.16 0.15 0.17 0.18 0.17 0.19 0.21 0.21 0.17 0.14 0.16 0.19 0.18 0.17 0.18 0.22 0.24 0.24 0.24 0.25 0.27 0.28 0.29 0.29 0.29 0.28 0.28 0.27 0.25 0.25 0.28 0.31 0.32 0.31 0.30 0.31 0.34 0.36 0.42 0.44 0.46 0.50 0.53 0.59 0.65 0.65 0.67 0.69 0.71 0.73 0.76 0.73 0.76 0.79 0.82 0.81 0.85 0.88 0.85 0.82 0.78 0.78 0.76 0.74 0.69 0.65 0.62 0.60 0.59 0.57 0.54 0.52 0.50
0.29 0.25 0.26 0.25 0.22 0.23 0.23 0.23 0.23 0.21 0.19 0.18 0.17 0.17 0.19 0.19 0.17 0.17 0.17 0.19 0.20 0.18 0.18 0.17 0.18 0.18 0.20 0.23 0.25 0.28 0.30 0.30 0.31 0.32 0.32 0.30 0.29 0.29 0.27 0.26 0.25 0.26 0.26 0.27 0.28 0.30 0.30 0.31 0.32 0.34 0.35 0.37 0.40 0.42 0.44 0.48 0.53 0.58 0.64 0.69 0.76 0.80 0.84 0.81 0.78 0.77 0.77 0.78 0.80 0.88 0.91 0.87 0.84 0.82 0.83 0.81 0.76 0.71 0.67 0.64 0.62 0.59 0.56 0.53 0.51 0.50
0.31 0.27 0.31 0.28 0.24 0.23 0.25 0.24 0.23 0.22 0.20 0.17 0.17 0.18 0.19 0.18 0.18 0.19 0.18 0.16 0.17 0.18 0.19 0.19 0.18 0.16 0.24 0.27 0.29 0.32 0.32 0.33 0.31 0.30 0.30 0.31 0.30 0.28 0.27 0.27 0.27 0.28 0.28 0.29 0.29 0.30 0.30 0.31 0.32 0.33 0.35 0.37 0.38 0.39 0.43 0.46 0.49 0.53 0.58 0.68 0.68 0.69 0.85 0.90 0.84 0.80 0.81 0.80 0.82 0.79 0.83 0.88 0.87 0.86 0.85 0.82 0.79 0.73 0.68 0.65 0.63 0.59 0.56 0.53 0.51 0.50
0.35 0.29 0.33 0.30 0.24 0.23 0.25 0.24 0.23 0.23 0.21 0.18 0.16 0.18 0.18 0.17 0.15 0.16 0.16 0.18 0.17 0.16 0.16 0.16 0.15 0.15 0.23 0.29 0.30 0.30 0.29 0.28 0.28 0.29 0.29 0.29 0.28 0.28 0.27 0.27 0.28 0.28 0.29 0.30 0.31 0.33 0.34 0.35 0.35 0.34 0.35 0.37 0.40 0.40 0.40 0.43 0.47 0.52 0.57 0.63 0.71 0.74 0.75 0.89 0.92 0.85 0.78 0.76 0.77 0.74 0.80 0.85 0.85 0.87 0.85 0.82 0.79 0.74 0.70 0.67 0.62 0.58 0.56 0.54 0.52 0.52
0.32 0.30 0.27 0.27 0.23 0.22 0.26 0.26 0.24 0.23 0.19 0.15 0.14 0.18 0.19 0.18 0.17 0.17 0.19 0.20 0.20 0.20 0.16 0.14 0.15 0.22 0.25 0.29 0.25 0.25 0.27 0.28 0.28 0.28 0.28 0.28 0.28 0.29 0.28 0.28 0.29 0.30 0.31 0.31 0.32 0.32 0.34 0.36 0.38 0.39 0.38 0.39 0.40 0.41 0.42 0.44 0.45 0.46 0.52 0.60 0.68 0.75 0.76 0.76 0.79 0.84 0.82 0.81 0.82 0.76 0.79 0.80 0.87 0.87 0.84 0.80 0.78 0.74 0.71 0.64 0.61 0.59 0.58 0.56 0.56 0.53
0.32 0.33 0.29 0.30 0.24 0.23 0.24 0.24 0.22 0.19 0.13 0.11 0.18 0.19 0.19 0.17 0.18 0.16 0.17 0.20 0.22 0.22 0.20 0.22 0.23 0.26 0.27 0.25 0.23 0.23 0.24 0.25 0.27 0.29 0.31 0.29 0.28 0.29 0.30 0.31 0.32 0.33 0.33 0.34 0.35 0.35 0.36 0.37 0.38 0.39 0.40 0.42 0.43 0.44 0.44 0.44 0.44 0.48 0.52 0.56 0.62 0.70 0.76 0.76 0.76 0.76 0.79 0.79 0.78 0.78 0.74 0.74 0.79 0.79 0.79 0.79 0.77 0.73 0.68 0.64 0.60 0.61 0.61 0.59 0.56 0.52
0.19 0.20 0.22 0.26 0.24 0.22 0.24 0.23 0.19 0.13 0.12 0.19 0.22 0.23 0.22 0.22 0.21 0.19 0.20 0.22 0.23 0.24 0.24 0.24 0.26 0.26 0.27 0.27 0.27 0.27 0.27 0.29 0.29 0.28 0.30 0.33 0.33 0.32 0.31 0.32 0.32 0.33 0.33 0.34 0.34 0.36 0.37 0.38 0.39 0.38 0.37 0.37 0.40 0.43 0.44 0.42 0.41 0.44 0.49 0.55 0.58 0.65 0.72 0.78 0.74 0.77 0.75 0.76 0.78 0.77 0.75 0.76 0.75 0.73 0.73 0.76 0.75 0.70 0.65 0.63 0.62 0.62 0.61 0.57 0.54 0.51
0.18 0.17 0.18 0.20 0.23 0.24 0.20 0.18 0.13 0.11 0.17 0.21 0.21 0.22 0.23 0.24 0.22 0.19 0.17 0.23 0.23 0.25 0.26 0.24 0.27 0.28 0.29 0.29 0.29 0.31 0.30 0.30 0.31 0.30 0.31 0.33 0.30 0.29 0.28 0.28 0.30 0.32 0.32 0.34 0.34 0.35 0.37 0.38 0.39 0.40 0.39 0.40 0.39 0.38 0.39 0.40 0.43 0.41 0.43 0.53 0.56 0.61 0.64 0.67 0.82 0.82 0.83 0.80 0.79 0.78 0.78 0.78 0.75 0.73 0.73 0.72 0.70 0.67 0.64 0.63 0.62 0.60 0.59 0.56 0.54 0.52
0.24 0.23 0.21 0.16 0.19 0.15 0.16 0.16 0.15 0.18 0.16 0.17 0.17 0.18 0.18 0.18 0.20 0.19 0.14 0.19 0.27 0.29 0.29 0.27 0.28 0.28 0.29 0.30 0.31 0.32 0.32 0.29 0.25 0.26 0.30 0.31 0.31 0.31 0.30 0.28 0.29 0.30 0.32 0.34 0.36 0.36 0.38 0.38 0.38 0.39 0.41 0.41 0.40 0.38 0.37 0.38 0.41 0.41 0.41 0.47 0.53 0.57 0.56 0.59 0.69 0.86 0.90 0.89 0.91 0.88 0.88 0.87 0.83 0.77 0.74 0.70 0.67 0.64 0.62 0.62 0.61 0.59 0.58 0.54 0.50 0.45
0.26 0.23 0.25 0.21 0.19 0.20 0.16 0.15 0.16 0.15 0.11 0.14 0.21 0.29 0.32 0.32 0.28 0.27 0.22 0.21 0.29 0.30 0.30 0.28 0.26 0.27 0.27 0.28 0.29 0.29 0.28 0.22 0.18 0.19 0.25 0.28 0.28 0.29 0.30 0.31 0.33 0.33 0.33 0.32 0.34 0.37 0.39 0.39 0.39 0.40 0.40 0.39 0.40 0.40 0.40 0.41 0.41 0.42 0.42 0.42 0.51 0.55 0.55 0.56 0.61 0.69 0.79 0.84 0.86 0.87 0.87 0.82 0.79 0.78 0.73 0.69 0.65 0.61 0.61 0.61 0.60 0.57 0.55 0.49 0.44 0.40
0.24 0.25 0.25 0.23 0.21 0.21 0.19 0.16 0.15 0.13 0.15 0.23 0.29 0.34 0.36 0.37 0.34 0.33 0.23 0.18 0.30 0.30 0.30 0.30 0.27 0.29 0.29 0.28 0.29 0.29 0.24 0.19 0.17 0.18 0.24 0.27 0.28 0.29 0.29 0.30 0.32 0.33 0.34 0.35 0.35 0.35 0.36 0.38 0.38 0.38 0.39 0.39 0.38 0.39 0.43 0.44 0.44 0.44 0.42 0.43 0.46 0.53 0.54 0.55 0.59 0.69 0.76 0.80 0.83 0.84 0.82 0.79 0.75 0.71 0.70 0.66 0.61 0.62 0.61 0.59 0.56 0.56 0.52 0.46 0.41 0.37
0.21 0.23 0.24 0.21 0.21 0.23 0.22 0.19 0.17 0.20 0.19 0.30 0.34 0.37 0.39 0.41 0.35 0.29 0.17 0.18 0.30 0.32 0.33 0.32 0.30 0.30 0.30 0.31 0.31 0.28 0.23 0.18 0.17 0.19 0.25 0.28 0.29 0.29 0.30 0.30 0.31 0.32 0.34 0.36 0.38 0.39 0.39 0.38 0.38 0.36 0.36 0.37 0.38 0.42 0.45 0.45 0.45 0.43 0.44 0.44 0.47 0.48 0.53 0.57 0.60 0.66 0.70 0.75 0.79 0.79 0.80 0.79 0.75 0.72 0.67 0.63 0.63 0.62 0.60 0.59 0.55 0.49 0.44 0.41 0.39 0.37
0.19 0.20 0.22 0.19 0.20 0.21 0.23 0.22 0.23 0.24 0.33 0.37 0.35 0.38 0.39 0.40 0.35 0.22 0.17 0.24 0.32 0.33 0.34 0.34 0.32 0.31 0.32 0.30 0.31 0.24 0.25 0.26 0.25 0.26 0.28 0.29 0.28 0.27 0.29 0.32 0.33 0.35 0.34 0.36 0.37 0.39 0.38 0.37 0.37 0.37 0.39 0.40 0.42 0.45 0.46 0.46 0.44 0.41 0.43 0.45 0.49 0.48 0.53 0.60 0.64 0.68 0.70 0.73 0.76 0.76 0.76 0.76 0.75 0.70 0.66 0.64 0.62 0.60 0.56 0.52 0.46 0.44 0.42 0.39 0.38 0.36
0.20 0.20 0.21 0.23 0.20 0.19 0.20 0.19 0.19 0.24 0.34 0.38 0.37 0.38 0.41 0.31 0.21 0.20 0.29 0.35 0.34 0.32 0.34 0.33 0.31 0.31 0.30 0.29 0.28 0.27 0.26 0.28 0.29 0.28 0.28 0.28 0.29 0.28 0.29 0.30 0.32 0.34 0.36 0.37 0.38 0.38 0.36 0.36 0.37 0.39 0.41 0.43 0.45 0.47 0.47 0.47 0.43 0.41 0.42 0.45 0.47 0.52 0.60 0.66 0.67 0.66 0.70 0.73 0.74 0.74 0.71 0.70 0.69 0.66 0.63 0.60 0.55 0.50 0.48 0.48 0.46 0.43 0.41 0.39 0.37 0.34
0.18 0.17 0.18 0.20 0.22 0.22 0.20 0.18 0.17 0.15 0.31 0.36 0.36 0.33 0.37 0.24 0.25 0.31 0.32 0.33 0.34 0.33 0.32 0.32 0.31 0.30 0.30 0.28 0.28 0.28 0.28 0.28 0.27 0.27 0.27 0.27 0.28 0.28 0.30 0.31 0.32 0.32 0.32 0.33 0.33 0.35 0.36 0.35 0.36 0.39 0.42 0.46 0.48 0.50 0.50 0.50 0.45 0.43 0.43 0.44 0.50 0.58 0.65 0.68 0.66 0.64 0.65 0.64 0.67 0.68 0.68 0.65 0.60 0.57 0.54 0.51 0.50 0.50 0.47 0.46 0.43 0.41 0.39 0.36 0.35 0.33
0.24 0.18 0.19 0.21 0.24 0.18 0.18 0.17 0.18 0.25 0.29 0.36 0.30 0.23 0.26 0.28 0.30 0.31 0.32 0.29 0.33 0.33 0.33 0.33 0.32 0.33 0.32 0.29 0.27 0.27 0.28 0.27 0.27 0.28 0.29 0.29 0.30 0.32 0.33 0.33 0.33 0.33 0.33 0.33 0.34 0.35 0.37 0.37 0.39 0.43 0.46 0.49 0.53 0.54 0.55 0.54 0.49 0.48 0.45 0.46 0.53 0.58 0.63 0.67 0.67 0.64 0.61 0.64 0.68 0.64 0.59 0.55 0.53 0.52 0.52 0.51 0.49 0.48 0.44 0.42 0.39 0.38 0.37 0.36 0.33 0.31
0.25 0.20 0.24 0.18 0.24 0.21 0.18 0.21 0.27 0.29 0.30 0.31 0.29 0.27 0.29 0.32 0.35 0.36 0.35 0.34 0.32 0.34 0.37 0.33 0.32 0.33 0.33 0.32 0.30 0.29 0.28 0.28 0.29 0.30 0.30 0.30 0.32 0.33 0.33 0.33 0.33 0.33 0.33 0.32 0.34 0.38 0.40 0.41 0.43 0.46 0.49 0.53 0.57 0.58 0.59 0.59 0.53 0.50 0.49 0.53 0.60 0.62 0.62 0.68 0.69 0.66 0.64 0.63 0.61 0.57 0.54 0.54 0.53 0.52 0.52 0.50 0.48 0.43 0.39 0.38 0.39 0.38 0.38 0.37 0.34 0.30
0.23 0.24 0.26 0.23 0.21 0.25 0.26 0.25 0.27 0.28 0.28 0.27 0.28 0.30 0.30 0.32 0.34 0.33 0.31 0.30 0.31 0.33 0.35 0.32 0.32 0.31 0.31 0.33 0.31 0.29 0.29 0.30 0.31 0.31 0.32 0.33 0.33 0.33 0.34 0.33 0.34 0.34 0.35 0.37 0.40 0.43 0.45 0.48 0.49 0.51 0.52 0.55 0.59 0.60 0.62 0.61 0.57 0.52 0.55 0.59 0.63 0.70 0.68 0.69 0.66 0.66 0.64 0.60 0.57 0.55 0.54 0.52 0.50 0.48 0.47 0.44 0.41 0.38 0.39 0.38 0.39 0.38 0.37 0.35 0.32 0.30
0.21 0.22 0.20 0.17 0.21 0.19 0.15 0.22 0.23 0.23 0.23 0.25 0.25 0.31 0.32 0.32 0.31 0.32 0.31 0.30 0.30 0.31 0.32 0.32 0.31 0.31 0.31 0.32 0.31 0.29 0.29 0.33 0.32 0.32 0.33 0.34 0.32 0.31 0.32 0.32 0.34 0.36 0.37 0.39 0.43 0.47 0.49 0.51 0.51 0.53 0.53 0.52 0.61 0.64 0.63 0.63 0.63 0.64 0.68 0.69 0.71 0.70 0.69 0.65 0.63 0.60 0.56 0.53 0.53 0.52 0.49 0.47 0.46 0.45 0.43 0.41 0.39 0.38 0.39 0.39 0.38 0.37 0.35 0.33 0.31 0.30
0.18 0.27 0.20 0.19 0.19 0.17 0.17 0.20 0.21 0.22 0.23 0.24 0.26 0.25 0.25 0.27 0.28 0.29 0.29 0.30 0.30 0.31 0.30 0.30 0.31 0.29 0.31 0.30 0.31 0.31 0.32 0.34 0.33 0.33 0.33 0.32 0.31 0.32 0.33 0.34 0.36 0.38 0.42 0.45 0.48 0.52 0.53 0.55 0.55 0.56 0.59 0.61 0.65 0.67 0.67 0.72 0.71 0.72 0.71 0.72 0.74 0.69 0.65 0.64 0.60 0.55 0.52 0.51 0.49 0.46 0.45 0.46 0.45 0.43 0.41 0.39 0.38 0.38 0.38 0.39 0.38 0.36 0.34 0.33 0.31 0.27
0.24 0.25 0.18 0.19 0.17 0.18 0.20 0.20 0.21 0.22 0.21 0.22 0.24 0.24 0.25 0.27 0.27 0.26 0.28 0.28 0.28 0.27 0.28 0.28 0.29 0.28 0.29 0.30 0.32 0.34 0.33 0.34 0.35 0.35 0.34 0.33 0.33 0.34 0.35 0.37 0.40 0.43 0.45 0.47 0.51 0.55 0.57 0.59 0.61 0.64 0.65 0.65 0.66 0.67 0.68 0.71 0.74 0.72 0.72 0.69 0.69 0.68 0.64 0.61 0.57 0.54 0.50 0.48 0.47 0.46 0.46 0.45 0.43 0.41 0.40 0.39 0.39 0.40 0.39 0.38 0.38 0.36 0.35 0.34 0.31 0.25
0.25 0.20 0.23 0.22 0.18 0.16 0.16 0.18 0.21 0.17 0.15 0.18 0.21 0.25 0.26 0.28 0.28 0.27 0.26 0.26 0.26 0.26 0.26 0.26 0.27 0.29 0.30 0.32 0.34 0.35 0.34 0.34 0.36 0.36 0.35 0.36 0.37 0.37 0.38 0.41 0.44 0.46 0.48 0.53 0.58 0.60 0.63 0.64 0.64 0.64 0.65 0.64 0.67 0.69 0.70 0.71 0.71 0.73 0.71 0.68 0.66 0.63 0.57 0.54 0.52 0.51 0.51 0.50 0.47 0.46 0.45 0.43 0.41 0.41 0.40 0.40 0.40 0.39 0.40 0.41 0.40 0.37 0.34 0.29 0.27 0.28
0.21 0.21 0.22 0.20 0.18 0.17 0.21 0.24 0.25 0.24 0.22 0.22 0.23 0.27 0.29 0.29 0.28 0.26 0.25 0.25 0.26 0.28 0.29 0.29 0.28 0.28 0.30 0.32 0.37 0.37 0.36 0.36 0.37 0.39 0.39 0.39 0.39 0.42 0.44 0.47 0.49 0.51 0.54 0.58 0.60 0.63 0.62 0.63 0.64 0.66 0.63 0.62 0.66 0.67 0.68 0.66 0.67 0.67 0.65 0.64 0.61 0.58 0.56 0.55 0.51 0.49 0.47 0.46 0.45 0.44 0.43 0.42 0.41 0.41 0.40 0.40 0.40 0.39 0.38 0.37 0.38 0.37 0.33 0.27 0.29 0.29
Wind_Speed
8 9 10 11 12 13 13 13 12 11 11 10 9 9 10 10 12 12 11 12 11 12 13 14 14 14 13 13 13 13 11 12 15 16 16 18 20 21 21 21 21 21 22 22 22 22 21 20 19 18 18 17 16 16 15 14 15 14 13 13 12 12 12 12 12 12 11 11 11 11 11 10 10 10 10 10 11 12 13 14 14 15 15 15 16 16
8 10 12 12 13 13 13 12 11 10 10 10 10 11 11 11 12 13 11 11 10 11 13 13 12 13 14 14 15 14 14 15 17 18 18 18 20 21 22 22 22 22 22 21 21 21 20 20 19 18 18 17 17 16 16 15 15 15 14 14 13 12 12 12 12 12 12 12 12 12 11 11 10 10 9 10 10 10 11 11 12 13 14 14 15 16
9 11 13 13 12 11 11 11 10 10 10 10 11 11 13 12 12 13 12 12 10 10 13 13 12 14 15 15 16 16 16 17 19 20 20 19 20 21 22 22 22 22 21 21 21 21 20 20 19 18 18 18 18 17 16 16 16 15 15 14 14 13 13 13 13 13 13 13 12 12 11 11 11 10 9 9 9 9 9 10 11 11 12 13 14 14
10 11 12 12 11 11 12 12 10 10 11 11 12 12 14 14 13 13 14 13 12 12 14 13 13 15 16 16 16 17 17 18 19 20 21 20 21 22 23 23 23 22 21 21 21 21 20 20 19 18 18 18 17 17 16 16 16 16 16 16 15 14 14 14 14 14 14 13 13 12 11 11 10 10 9 9 8 8 8 9 9 10 11 12 13 13
13 13 11 10 11 12 13 13 11 11 13 14 14 14 15 16 15 15 15 15 14 15 14 13 15 17 16 16 17 17 16 18 20 22 23 22 22 23 23 23 23 23 22 22 22 21 20 20 19 19 18 18 18 18 18 17 17 17 17 16 16 15 14 14 14 14 14 13 12 12 11 11 11 10 9 9 8 8 8 8 9 9 9 10 11 12
15 15 13 11 13 13 13 13 13 13 14 15 16 16 16 17 16 15 15 14 14 16 16 14 15 17 17 16 17 17 17 19 20 21 23 23 22 22 22 23 23 23 23 23 22 22 21 21 20 19 19 19 19 19 19 18 17 17 17 17 16 15 15 15 14 14 14 14 13 13 12 12 11 11 10 9 9 9 9 8 8 8 8 8 9 10
14 13 12 13 14 13 12 14 15 13 13 15 16 16 16 16 16 15 15 15 15 17 17 15 15 18 18 18 19 19 19 20 19 19 21 21 19 20 21 22 23 22 22 22 22 22 22 21 20 20 20 20 20 20 19 18 18 17 17 17 16 16 16 15 15 15 15 15 14 14 13 13 12 12 11 11 10 10 10 9 9 9 8 8 8 9
12 11 11 12 13 12 12 14 15 13 12 14 15 14 15 15 15 16 15 15 16 16 16 15 15 18 20 19 20 20 20 20 19 18 19 19 18 19 20 21 22 21 21 20 21 21 22 22 21 20 21 21 21 20 19 19 18 18 18 17 17 17 16 16 16 16 16 15 15 14 14 14 13 12 12 12 11 11 10 10 10 10 10 9 9 9
12 11 12 11 11 12 12 14 14 12 12 15 14 12 13 14 14 14 13 13 14 14 16 17 16 17 20 19 17 16 17 17 17 16 18 18 18 19 20 20 20 20 19 19 20 21 21 22 21 20 20 20 20 20 20 20 19 18 18 18 17 17 17 16 16 16 16 16 15 15 15 15 14 13 13 13 12 12 11 11 11 11 11 11 10 10
12 12 13 11 11 12 13 13 12 11 14 15 12 11 11 11 12 13 12 13 13 13 15 17 15 15 17 17 15 13 13 14 15 15 16 18 19 19 20 19 19 18 17 17 18 19 20 21 20 20 19 19 19 20 20 20 20 19 18 18 18 18 18 17 17 17 17 16 16 15 15 15 15 14 14 14 13 13 12 12 12 12 12 12 12 12
13 12 12 11 12 13 12 12 12 12 14 13 11 11 11 10 11 12 12 12 12 13 14 14 12 12 14 14 13 11 11 12 14 15 15 15 18 19 19 18 18 18 17 16 17 18 19 20 20 20 20 19 19 19 19 20 20 19 19 19 19 18 18 17 17 17 17 17 16 16 16 16 16 15 15 15 14 14 14 13 13 13 13 13 13 13
13 12 12 12 13 12 12 13 12 12 13 10 10 11 11 12 11 11 12 11 10 13 13 11 10 10 11 12 11 10 11 13 14 15 13 12 15 18 18 17 18 18 18 17 16 17 18 19 20 20 20 20 19 19 19 19 20 19 20 19 19 18 18 18 17 17 18 17 17 17 17 17 17 17 16 16 16 15 15 14 14 14 14 14 14 14
12 13 13 13 13 12 11 13 13 12 11 10 9 9 9 11 10 11 12 12 12 14 14 13 11 12 13 14 13 13 14 14 13 14 14 13 14 16 17 17 18 19 19 18 17 17 17 18 19 20 20 21 20 20 20 20 19 19 19 19 18 18 18 17 17 18 19 18 18 18 18 18 18 18 17 17 16 16 16 15 15 15 15 14 14 14
11 12 11 10 12 12 11 12 12 11 11 11 10 9 9 9 9 11 12 11 12 14 15 13 12 12 13 12 12 13 13 13 13 15 15 14 14 16 17 17 17 18 19 18 18 18 18 18 18 19 20 20 21 21 21 20 20 20 19 19 18 18 18 18 18 18 19 19 19 19 19 19 18 18 18 18 17 17 17 17 16 16 16 15 15 15
10 11 11 10 11 11 10 11 12 10 10 12 12 10 11 10 10 11 11 11 12 13 13 12 11 10 10 10 10 11 12 11 11 12 10 11 12 13 14 14 15 17 18 18 18 18 18 18 18 18 19 20 20 21 21 21 20 20 20 20 19 18 18 18 18 19 19 19 19 20 20 20 19 19 19 18 18 18 18 17 17 17 17 16 16 16
11 12 12 12 11 9 9 11 11 10 10 12 12 11 12 12 11 12 12 12 11 11 12 12 12 13 12 12 12 11 11 10 9 9 6 6 7 7 9 10 13 16 17 18 18 18 18 18 18 19 19 19 20 20 20 20 20 20 21 21 20 20 19 19 19 19 20 20 19 20 20 20 20 19 19 19 19 19 19 18 18 18 18 17 17 17
11 13 13 12 10 9 9 11 10 11 11 11 11 12 13 11 10 13 14 12 11 12 14 13 13 15 14 14 14 11 10 10 9 7 6 5 4 4 6 7 9 13 14 16 18 18 19 19 20 21 20 20 20 21 21 21 21 21 21 21 21 21 20 20 20 20 20 20 20 21 21 21 20 19 19 19 19 19 19 19 19 19 19 18 18 18
12 13 14 12 11 12 12 10 9 10 10 10 11 13 13 11 10 11 12 12 11 13 15 13 14 15 13 12 13 10 9 9 9 8 7 6 4 4 6 5 6 8 10 13 15 17 18 19 20 21 21 21 22 22 22 22 22 22 21 22 22 21 21 21 21 21 21 21 21 22 22 22 21 20 20 20 20 20 20 20 20 20 20 19 19 19
13 13 15 13 13 15 13 10 10 10 9 9 11 12 12 12 13 13 12 12 13 14 14 14 14 14 13 12 11 10 10 9 9 9 9 9 8 7 7 6 6 6 7 9 11 14 17 19 20 21 21 22 22 22 23 23 22 22 22 22 22 22 22 21 21 21 21 22 22 22 23 23 22 21 21 20 20 20 20 21 21 20 20 20 20 20
13 13 15 14 13 14 13 12 12 12 11 11 12 12 12 12 14 15 15 14 14 14 14 14 14 13 12 12 10 11 11 10 10 10 10 11 11 10 10 9 8 8 7 8 9 11 14 17 19 21 22 22 22 23 23 23 23 23 23 23 24 24 23 22 21 21 21 22 22 22 23 23 23 22 21 21 21 21 21 21 21 21 21 21 21 21
14 14 16 16 15 14 14 14 13 13 14 14 15 15 15 14 14 15 16 15 14 14 15 15 15 15 14 13 11 11 11 10 9 10 11 11 10 10 11 12 12 12 12 12 11 12 13 13 16 19 21 23 23 24 24 24 24 24 24 24 25 25 24 23 22 21 22 22 22 22 23 23 23 22 22 22 22 22 22 22 22 22 22 22 22 22
15 16 16 17 17 17 18 18 17 16 16 16 17 18 18 18 16 15 17 17 16 15 16 15 17 19 17 15 13 11 11 11 10 10 11 11 10 11 11 12 14 15 16 16 15 15 15 15 15 17 20 23 25 25 26 26 26 26 26 26 25 26 26 25 24 23 23 23 23 23 23 23 23 22 22 22 22 22 22 22 22 22 22 22 22 22
16 16 17 18 19 20 21 22 20 18 18 17 18 19 18 18 17 16 18 19 17 17 17 16 18 21 19 17 15 13 12 12 11 11 12 12 13 13 13 13 14 15 16 17 17 17 17 17 17 19 20 22 24 26 27 28 28 27 28 28 28 27 27 27 26 26 25 25 25 25 24 24 23 23 22 22 22 22 22 22 22 22 22 22 22 22
18 17 18 20 21 21 22 22 21 19 18 18 20 20 18 17 17 18 19 20 19 20 18 17 19 22 20 18 16 15 15 15 14 14 14 14 15 15 15 15 15 16 17 18 18 19 19 19 19 21 22 23 24 25 27 29 30 29 28 29 30 30 29 28 28 27 26 26 26 26 26 25 24 23 23 23 23 22 22 22 22 22 22 22 23 23
20 19 19 19 20 21 20 20 20 19 19 20 22 22 19 18 19 19 19 18 19 21 19 18 21 22 20 18 16 16 17 18 18 18 17 16 17 17 17 18 18 18 19 19 20 20 21 21 21 22 23 24 26 27 28 29 30 31 31 30 30 30 30 29 29 28 27 27 27 27 27 27 26 25 24 24 24 23 23 22 22 22 23 23 23 24
20 20 20 19 20 21 20 19 20 20 20 21 22 22 20 19 20 19 18 18 20 21 20 20 23 25 23 21 19 19 20 20 20 20 20 19 19 20 20 20 21 20 20 21 21 21 22 23 23 23 24 25 27 29 30 30 31 32 33 32 31 32 32 32 32 31 29 28 28 28 28 27 27 25 25 25 25 24 24 23 23 23 23 23 23 24
19 21 21 21 22 22 22 22 22 21 22 23 24 24 22 20 20 19 19 20 21 21 23 24 24 26 26 24 21 21 22 23 23 23 22 21 21 22 23 23 23 22 22 23 24 25 26 26 26 26 27 27 27 29 30 31 32 33 34 33 33 33 33 33 33 33 33 30 29 29 29 29 28 26 26 26 25 24 24 24 23 23 23 23 23 23
18 21 22 21 22 23 22 23 23 22 23 24 25 27 25 22 21 22 22 23 22 21 24 26 23 24 28 26 23 23 24 24 24 24 23 23 23 24 25 24 24 25 26 27 27 28 28 28 29 29 29 29 29 29 30 31 32 33 34 35 35 35 35 35 33 33 34 33 32 31 31 30 29 28 27 27 26 25 24 24 24 23 23 23 23 23
19 22 22 21 22 22 22 22 22 22 23 24 24 25 25 23 23 25 25 24 22 22 26 27 24 25 27 26 25 25 26 25 25 24 25 25 25 25 26 27 28 29 29 29 29 29 30 29 29 30 30 30 31 31 32 32 33 33 34 36 36 36 36 36 35 34 34 34 33 31 30 30 29 28 28 27 27 26 25 25 25 24 24 24 24 24
20 22 22 22 23 23 22 23 23 22 23 25 25 24 23 23 24 25 26 25 25 26 27 27 27 27 27 27 27 26 25 24 24 24 25 26 26 27 28 29 30 30 30 30 31 31 32 31 31 31 31 30 31 31 32 32 33 34 34 35 36 36 36 36 36 35 33 33 33 32 31 31 29 28 28 27 26 26 26 25 25 25 24 25 25 25
21 22 22 21 22 23 22 23 23 23 24 26 26 23 22 24 24 23 24 24 24 26 26 26 27 28 27 27 27 25 24 23 24 25 26 27 28 29 29 29 30 30 31 31 32 32 33 33 32 32 32 31 32 32 32 32 32 33 35 36 37 37 37 36 35 34 33 33 33 33 32 32 30 29 28 27 26 26 26 26 25 25 25 25 26 26
22 23 23 21 23 25 24 25 25 24 24 27 27 24 24 25 24 23 23 23 23 25 24 24 26 28 28 27 27 25 24 24 25 26 27 28 29 29 29 29 30 30 31 31 32 32 32 33 33 33 33 33 33 33 33 32 32 32 33 36 37 38 38 37 36 36 35 34 34 33 32 32 31 29 28 28 28 28 27 26 26 26 26 26 26 26
22 23 23 22 24 25 24 24 24 22 24 27 26 23 23 24 23 22 22 21 22 22 22 23 25 25 26 25 25 25 25 25 26 28 29 29 29 28 28 29 30 31 32 32 33 33 32 33 33 33 34 34 34 34 34 34 34 34 33 34 36 37 39 39 38 38 37 36 35 34 33 33 32 30 28 28 29 28 27 27 27 27 27 27 27 27
24 24 25 23 24 25 24 23 22 23 25 26 24 21 20 20 20 20 20 21 22 21 21 22 22 23 24 24 24 25 26 26 28 29 29 29 28 28 30 31 32 33 33 33 34 34 34 34 34 34 35 35 35 35 35 35 36 36 35 34 34 35 37 38 38 39 38 38 37 36 35 35 34 32 30 28 28 28 28 27 27 27 27 27 27 27
26 26 26 25 24 25 24 22 23 26 26 24 23 22 20 19 19 20 21 22 23 22 21 21 22 24 24 25 25 26 27 28 29 29 29 28 28 29 31 32 33 33 34 34 34 34 35 35 35 36 36 36 36 36 36 36 36 37 37 36 35 35 35 36 37 38 39 40 38 37 37 37 35 33 31 29 27 26 26 26 27 27 27 27 27 27
25 25 25 25 25 24 23 22 24 26 26 25 25 25 23 21 21 22 23 24 24 23 22 22 24 25 26 26 26 27 28 28 28 28 27 27 28 30 31 32 33 33 34 34 35 35 35 36 36 36 36 37 37 37 37 36 37 37 38 38 37 36 35 35 36 36 36 37 37 37 36 36 34 32 31 29 27 26 26 26 27 27 27 27 26 26
21 22 23 24 24 24 24 24 25 26 27 26 26 25 25 25 24 23 23 24 23 22 22 22 24 25 26 26 26 27 28 28 27 26 27 28 29 30 31 32 33 34 34 35 35 36 36 36 36 37 37 38 38 38 38 37 37 37 38 38 38 37 36 35 35 35 33 31 31 32 32 31 29 28 28 28 28 27 27 27 27 26 26 26 26 26
19 20 21 22 23 22 23 23 23 23 24 23 22 22 22 21 20 19 20 22 23 23 22 22 24 25 26 26 26 27 27 28 28 27 27 29 30 31 33 33 34 35 35 36 36 36 36 36 36 37 38 38 39 39 39 39 38 37 37 38 38 37 36 35 36 36 35 32 31 32 32 31 29 27 26 27 27 27 27 26 25 25 25 25 26 27
18 17 17 20 21 20 20 21 21 21 21 21 20 20 20 19 19 18 19 22 24 24 23 23 24 25 25 25 25 25 25 27 28 28 28 30 31 32 34 35 36 36 36 36 36 37 37 37 37 38 38 39 39 39 39 39 39 38 37 37 37 37 37 36 36 36 36 34 31 31 32 31 30 29 27 27 27 26 26 25 24 24 24 25 26 26
16 15 15 18 20 20 19 20 20 20 20 20 20 20 21 19 18 17 19 22 23 23 23 22 23 24 24 24 25 24 24 27 29 30 31 32 34 34 35 36 37 37 37 37 38 38 39 38 38 38 38 38 38 38 37 37 37 37 37 36 36 37 37 36 36 36 36 34 31 29 27 27 27 28 28 27 26 26 25 24 23 23 24 25 26 27
16 16 15 16 18 18 18 20 21 21 21 21 22 21 20 18 16 17 19 21 22 22 22 22 23 24 25 25 26 26 27 30 32 34 35 35 36 37 36 36 37 37 37 38 38 39 39 39 38 38 37 36 36 35 34 34 35 35 35 35 35 36 36 35 35 35 35 34 32 29 27 25 24 24 24 25 25 25 25 25 24 25 25 26 27 28
16 16 16 16 16 17 17 18 19 19 19 20 21 21 20 18 17 19 21 22 23 24 24 24 26 27 27 28 29 30 32 33 35 36 37 37 38 38 37 37 37 37 37 37 38 38 38 38 37 36 35 34 34 33 32 32 32 33 34 34 35 35 35 34 34 34 34 33 32 30 29 27 24 23 23 23 23 24 25 25 25 26 26 27 28 28
17 17 17 17 17 18 18 18 18 17 18 19 19 19 19 20 21 23 24 25 26 27 27 28 28 29 29 30 31 32 34 35 36 37 38 38 38 38 37 37 37 37 37 37 37 37 36 36 35 33 33 33 32 32 31 31 31 31 31 32 33 33 33 32 32 32 33 33 32 30 28 27 25 24 23 22 22 22 23 24 24 25 26 26 27 27
18 17 17 18 18 18 18 18 17 18 19 20 21 22 23 24 25 26 27 27 27 28 28 29 30 30 31 32 33 34 35 36 36 37 37 37 37 36 35 35 35 35 35 35 35 35 34 33 32 31 31 31 31 31 30 29 30 29 29 30 30 30 31 32 31 30 30 31 30 28 26 24 23 22 21 21 21 21 21 22 23 23 24 24 25 25
19 18 19 21 20 20 21 22 22 22 23 23 24 25 26 26 26 26 27 28 28 29 29 30 31 32 33 34 35 36 36 37 37 36 35 34 33 33 33 33 33 33 33 33 32 31 29 29 29 29 29 30 30 30 29 28 27 27 27 27 28 29 29 30 29 28 28 28 26 24 23 21 20 20 19 19 19 19 19 20 20 21 22 23 24 25
22 22 23 23 23 24 25 25 24 25 26 27 27 27 26 27 27 27 28 29 30 31 31 32 33 34 35 35 36 37 37 36 35 33 31 30 31 31 31 31 31 31 30 29 28 27 26 26 26 27 27 27 26 25 24 23 23 24 24 24 25 28 29 29 28 27 27 26 23 22 21 20 19 18 18 18 17 17 17 17 18 19 21 22 23 25
23 23 23 24 25 26 27 27 26 28 30 30 29 28 28 29 29 29 30 31 32 33 34 34 35 35 35 35 35 35 34 32 30 29 28 28 29 30 29 29 29 28 27 25 25 25 24 23 23 22 22 22 20 19 18 18 18 19 20 21 24 27 28 28 27 26 25 24 23 21 21 20 18 17 17 18 17 17 17 17 18 19 20 22 24 26
22 22 23 24 25 27 28 29 30 31 32 30 29 30 31 31 31 31 32 33 33 34 34 34 34 34 34 33 32 31 30 28 27 27 27 27 28 28 27 27 27 25 24 24 23 23 21 20 18 17 15 14 13 12 14 14 13 16 19 21 24 27 27 26 25 24 23 23 22 20 19 18 17 17 17 17 17 16 16 17 18 19 20 22 24 26
24 24 24 25 26 27 28 29 29 30 30 29 29 31 31 31 32 32 32 33 33 33 33 33 33 32 31 30 29 28 28 27 26 26 26 26 26 26 25 24 24 23 22 21 20 19 16 14 13 11 10 9 8 9 12 12 13 17 20 23 25 26 25 24 23 22 22 21 19 17 16 16 16 16 15 15 15 15 16 17 18 18 20 22 24 26
24 25 24 25 26 27 26 26 26 28 29 28 28 29 30 30 31 31 31 31 32 31 32 31 31 30 29 28 27 27 26 25 25 24 25 25 25 24 23 22 22 21 19 18 16 15 13 11 11 10 9 8 8 9 12 13 15 18 21 23 25 25 24 23 22 21 20 18 16 16 16 15 14 14 13 12 13 14 15 16 17 18 20 22 24 26
24 25 25 25 27 27 28 28 26 26 27 27 27 28 28 28 29 29 30 30 29 29 29 29 28 28 27 26 25 24 23 23 23 23 23 23 23 22 21 20 19 17 16 14 12 11 11 10 9 8 9 9 8 10 14 17 19 19 21 23 24 24 23 22 21 19 18 16 16 15 14 13 12 11 11 11 12 13 14 15 17 19 21 23 24 26
Wind_Direction
238 242 245 239 237 233 235 234 231 239 238 237 245 249 255 259 264 269 275 276 259 240 240 240 244 248 250 254 257 260 258 246 241 240 239 238 238 240 242 244 244 245 247 247 244 242 242 241 242 242 241 240 242 245 247 249 250 252 251 251 252 250 245 243 244 246 246 248 250 249 250 257 261 260 260 261 259 256 253 251 249 247 245 243 243 242
244 243 244 239 233 228 234 238 235 242 244 243 247 255 261 259 265 272 273 276 262 240 244 247 251 257 254 252 257 260 257 253 250 248 248 246 244 244 244 244 245 246 248 246 246 245 244 244 244 243 239 236 237 240 244 246 247 250 250 250 251 251 247 243 244 246 246 247 248 246 246 253 257 257 257 259 260 259 256 252 248 247 245 244 244 243
249 246 245 240 235 230 236 242 240 243 247 250 252 257 262 260 265 272 270 271 266 249 250 252 254 258 256 251 253 255 255 256 254 250 252 251 247 246 246 246 244 245 247 246 245 245 245 246 245 242 238 236 236 238 242 244 245 248 249 249 251 253 250 244 245 247 247 248 247 245 248 252 255 256 256 258 259 260 259 255 249 246 245 245 244 243
243 246 247 242 236 233 240 246 249 253 254 256 257 259 261 261 263 266 267 269 266 258 253 255 260 262 261 259 255 252 252 259 261 258 257 255 251 249 247 246 244 243 245 245 244 245 245 246 244 240 238 237 237 238 241 242 244 247 247 247 249 253 252 246 247 249 248 247 246 245 248 252 255 255 255 259 261 261 260 257 254 249 247 246 244 242
244 249 253 246 238 237 241 248 251 255 262 262 258 257 259 261 259 259 264 269 269 266 260 263 271 268 264 264 263 260 260 263 264 263 262 259 255 251 247 245 244 242 243 243 243 244 245 244 242 239 237 236 235 237 240 242 243 246 246 246 248 252 252 248 248 247 245 244 244 244 247 252 254 252 252 256 258 258 256 255 256 253 250 248 244 241
251 255 254 247 244 243 243 249 249 250 261 265 261 256 256 258 258 257 263 268 268 266 265 266 270 269 267 265 263 265 269 269 265 261 261 259 253 248 245 242 242 243 243 243 243 243 243 243 241 239 236 235 234 237 240 242 243 244 245 245 248 252 252 248 247 245 243 244 244 244 246 248 249 247 248 250 251 251 251 252 254 252 251 249 246 242
259 260 251 243 244 245 246 250 253 252 257 265 263 257 254 255 256 256 259 262 260 259 264 265 263 267 272 269 265 266 268 270 267 260 259 258 249 242 241 240 239 242 244 244 242 240 240 240 240 238 237 235 236 238 239 241 243 243 244 246 248 251 250 248 247 245 244 245 246 246 246 246 244 243 245 247 248 248 249 251 252 251 251 250 249 247
261 266 255 246 244 244 247 251 254 252 255 265 265 258 255 255 256 256 255 258 259 260 266 270 266 269 273 271 269 267 266 268 267 260 257 255 246 239 239 238 238 240 242 242 240 238 238 238 238 239 238 236 236 237 238 240 242 242 243 245 249 250 249 247 247 246 245 245 245 245 245 243 242 241 242 244 245 247 248 249 251 252 252 252 250 248
261 263 253 244 243 245 248 251 252 252 257 264 262 257 257 253 251 254 254 257 262 266 271 274 273 272 274 275 273 267 262 264 265 261 257 252 244 238 237 237 237 240 242 241 239 237 238 238 238 239 238 236 236 236 236 239 241 242 242 244 248 248 247 246 247 246 245 244 244 243 242 242 242 242 242 244 246 247 247 247 249 250 252 252 250 247
258 257 250 244 247 250 252 255 253 252 259 261 254 256 266 260 253 254 253 258 267 273 272 272 272 271 274 276 273 267 262 260 262 265 263 252 243 237 235 235 237 239 241 243 242 240 239 239 239 239 238 237 237 237 238 240 242 242 242 244 246 247 245 246 247 245 243 243 243 242 241 242 242 242 243 246 248 248 248 248 248 249 249 250 250 249
257 258 253 249 249 249 252 259 259 253 255 257 253 258 269 269 263 260 259 262 269 270 268 268 269 270 275 275 267 259 258 260 264 272 271 254 242 238 235 235 236 238 240 243 244 242 241 241 241 241 240 238 238 239 240 242 242 242 243 243 245 245 244 245 247 244 241 242 243 242 242 243 243 243 245 247 249 251 251 251 250 250 249 249 250 250
262 260 257 256 250 249 256 262 266 261 254 256 261 261 261 263 266 267 268 269 264 260 261 266 269 268 267 269 265 261 266 271 266 267 268 253 239 239 238 236 236 236 238 241 242 243 243 243 243 243 242 240 239 239 240 242 241 242 242 243 244 244 243 244 245 243 241 242 244 243 244 245 244 245 247 249 250 252 252 252 252 251 251 251 251 251
263 256 260 265 256 251 254 262 272 274 259 255 263 259 252 260 267 267 268 266 258 255 258 262 267 267 264 265 268 268 273 276 266 260 260 253 244 241 241 238 236 236 238 238 241 243 243 244 244 243 241 239 239 239 239 240 240 241 240 240 241 241 241 243 244 243 242 244 245 245 245 246 246 247 248 250 252 253 253 253 253 253 252 252 252 253
265 263 265 267 263 255 249 254 265 269 258 249 252 250 246 254 262 264 266 266 261 260 261 261 262 266 270 271 263 258 268 276 275 269 259 253 252 248 244 242 239 239 240 240 242 243 244 245 244 241 239 239 239 239 238 238 238 238 238 237 239 241 242 243 244 244 244 245 246 246 246 247 248 249 250 251 252 254 254 254 254 255 255 254 254 255
259 265 263 258 261 259 253 252 251 255 257 249 246 247 248 248 251 257 259 259 260 261 263 265 261 257 264 271 262 259 270 276 284 285 266 252 259 258 252 247 241 239 240 241 244 245 245 244 241 239 237 236 237 238 238 239 239 239 239 239 240 242 243 244 245 246 246 246 247 247 247 249 250 251 252 252 253 254 254 255 255 256 256 256 256 257
255 257 258 258 259 260 265 263 251 250 262 259 251 250 254 251 250 256 256 253 256 263 265 264 260 258 262 270 274 277 280 276 284 301 291 263 270 275 267 256 248 248 247 245 245 245 245 243 240 238 236 236 238 238 239 240 241 241 242 242 242 243 244 245 247 247 246 246 247 247 247 249 250 251 252 253 253 254 254 255 255 256 256 256 257 257
253 255 260 263 261 258 263 267 261 251 254 261 255 248 253 256 254 259 262 261 260 263 265 262 263 271 274 273 276 280 279 277 279 287 283 265 265 286 285 271 261 260 257 252 248 245 244 243 243 242 240 240 241 241 241 242 242 242 243 243 243 245 246 247 248 248 247 246 247 248 248 249 250 251 252 252 252 253 255 255 255 256 256 256 257 258
252 258 265 263 258 256 257 266 274 260 248 257 261 253 255 262 261 262 265 267 264 261 265 265 263 270 273 268 273 279 275 275 274 267 265 266 264 274 282 281 275 272 266 261 256 251 248 249 247 244 242 244 244 243 243 242 243 243 243 243 243 245 247 248 248 248 247 247 248 249 248 248 249 251 252 252 252 254 255 255 255 256 256 256 257 258
258 259 266 264 256 257 260 262 271 270 252 250 262 262 260 260 259 260 261 262 262 262 268 270 266 265 263 259 265 273 268 266 268 264 262 267 268 268 272 280 287 286 278 270 266 260 257 256 252 248 247 247 246 245 245 244 244 244 244 245 244 246 248 248 248 249 249 249 250 250 249 249 250 251 252 253 253 254 254 255 256 256 256 257 257 258
262 258 261 264 258 256 261 259 260 266 262 257 264 268 267 261 255 254 254 254 256 259 264 270 271 267 259 253 253 261 264 262 262 262 259 263 268 266 265 270 277 281 280 277 277 272 266 263 258 254 252 250 247 247 247 246 246 246 247 247 246 247 248 249 249 250 250 250 251 250 249 250 251 252 252 253 253 254 254 255 256 257 257 258 258 259
265 261 259 264 264 258 257 255 253 259 263 267 270 270 271 271 266 262 259 255 253 255 258 262 267 265 258 253 251 256 263 261 256 257 257 258 263 263 262 266 269 270 274 278 282 282 279 276 269 259 254 252 252 251 250 248 248 248 249 249 248 247 246 247 249 250 251 251 251 250 250 250 251 251 252 252 253 254 255 256 257 257 258 258 259 260
264 263 261 265 265 259 256 255 255 258 259 262 265 266 268 270 269 266 262 259 256 254 254 257 262 263 258 253 253 254 257 258 254 255 257 258 261 264 266 269 269 268 270 272 273 277 279 281 278 267 258 256 255 254 252 252 250 250 250 249 248 248 247 248 250 251 252 252 251 250 250 251 251 252 252 252 253 254 255 256 257 258 258 259 260 261
264 266 266 267 264 261 261 261 261 261 258 258 262 264 265 266 265 263 262 263 262 260 259 259 261 263 258 252 251 252 254 258 261 262 261 261 264 267 270 274 275 273 271 270 268 271 274 276 277 273 267 262 259 256 254 254 253 252 252 250 248 248 249 249 251 253 252 252 251 250 250 250 251 252 252 252 253 254 255 257 258 258 259 260 261 263
268 270 270 270 270 270 271 268 266 265 261 260 264 265 264 262 262 261 260 260 261 260 259 259 261 263 260 255 251 251 255 260 267 270 269 267 267 268 270 272 275 275 274 273 271 271 272 275 277 276 273 267 262 259 257 255 254 252 254 254 250 248 249 250 251 252 252 252 252 251 251 251 251 252 252 253 254 255 256 257 258 259 260 261 263 264
268 268 269 273 275 276 276 274 271 269 264 261 261 262 261 261 262 263 263 262 261 259 253 252 258 260 258 257 255 254 256 257 261 265 266 266 268 270 271 271 271 272 273 273 273 273 273 274 277 277 276 271 265 261 260 258 255 253 255 256 253 251 252 252 251 250 251 253 252 251 251 251 251 252 252 253 255 255 256 257 259 261 262 263 264 266
266 266 266 268 269 269 270 270 268 267 265 261 259 258 259 261 263 263 263 262 260 259 256 254 259 262 261 261 263 265 264 261 260 263 264 265 268 271 273 274 273 271 271 270 270 272 272 274 275 277 278 276 271 267 263 260 258 256 255 255 254 253 253 253 253 251 249 251 251 249 249 250 250 251 252 254 256 256 256 257 260 262 263 264 266 267
267 268 266 263 263 265 266 266 267 267 267 265 263 263 261 260 261 261 261 259 257 259 261 258 260 265 265 264 266 270 269 266 264 266 267 268 270 272 273 274 274 273 273 272 271 273 274 275 276 277 278 277 275 273 269 265 262 258 255 254 255 255 253 253 254 251 247 249 251 249 248 248 249 250 252 254 256 257 257 258 260 262 264 266 267 269
269 271 269 263 263 264 264 266 268 268 267 266 266 266 264 260 260 260 259 258 256 259 262 260 258 263 265 265 267 269 268 267 268 269 270 270 272 274 273 273 275 277 278 277 276 277 277 278 277 277 278 277 276 275 273 270 265 262 258 255 254 253 252 252 252 250 247 249 250 249 247 247 248 249 251 253 256 257 258 259 261 263 266 268 269 270
267 269 268 265 266 265 263 265 266 265 266 267 265 266 265 263 261 259 257 256 254 256 260 260 258 260 264 266 268 269 268 268 270 271 272 273 275 276 275 275 277 279 279 278 278 278 278 279 277 277 277 277 276 275 274 272 268 264 262 258 254 252 252 252 251 250 248 249 248 247 246 245 246 247 249 252 255 256 257 259 262 264 267 269 270 272
268 270 269 268 270 269 265 265 265 265 268 269 267 266 264 263 261 260 259 257 255 256 258 260 261 261 262 264 267 269 269 270 272 274 276 277 277 277 278 278 278 279 278 277 277 277 277 277 276 275 275 275 275 274 274 273 270 266 262 260 256 253 251 251 249 248 248 248 245 245 245 244 243 246 249 251 253 254 256 259 261 264 267 269 271 272
271 270 270 271 272 271 269 267 266 267 268 269 269 267 265 265 265 263 261 259 259 260 261 261 262 262 262 263 264 266 269 271 273 276 278 278 278 278 279 278 278 278 278 277 277 277 276 275 274 273 273 273 273 273 272 271 271 267 263 259 257 253 251 248 246 245 247 246 244 245 246 242 242 247 248 249 252 254 256 258 260 263 266 268 270 272
272 270 271 272 272 272 271 269 269 272 273 271 270 267 266 268 268 264 263 262 261 261 262 262 262 261 262 265 265 265 268 271 273 275 277 277 277 277 277 278 278 278 278 278 278 277 276 275 274 273 273 273 272 272 270 269 269 268 264 260 256 253 250 247 245 245 246 246 244 244 243 240 243 246 246 248 252 254 256 258 260 262 264 266 269 271
268 269 270 270 271 272 271 270 271 276 276 272 268 265 265 265 265 265 266 264 261 260 260 260 260 260 262 265 267 268 269 271 272 275 276 276 276 277 278 279 279 279 279 278 278 278 277 276 275 274 274 273 271 270 270 268 267 267 266 262 257 253 249 246 245 245 245 245 244 243 241 241 242 243 245 250 253 253 255 257 259 261 263 265 267 270
265 265 266 266 268 270 269 271 275 275 271 269 268 265 263 261 260 261 263 263 262 263 262 260 262 264 265 266 267 268 270 271 273 275 275 275 276 278 280 282 281 281 281 280 279 279 278 277 276 276 275 273 272 270 269 268 266 265 265 262 259 255 251 248 246 244 243 243 243 242 241 241 240 241 245 250 252 252 253 255 258 260 262 263 266 268
266 264 264 263 264 266 268 268 270 270 268 269 272 269 263 260 258 259 263 265 265 265 264 262 264 266 266 267 268 270 272 273 275 276 275 275 277 280 282 283 283 282 282 282 281 280 279 278 278 277 275 274 273 271 270 268 266 265 263 261 258 256 254 251 248 243 242 242 242 241 241 239 238 240 243 246 250 251 252 255 259 260 260 262 264 267
266 264 263 262 261 263 264 261 262 268 271 272 273 271 267 266 265 265 268 269 267 264 261 261 263 264 265 267 270 272 274 274 274 274 275 277 279 282 283 283 283 282 282 282 281 280 279 279 278 277 276 274 273 272 270 268 267 265 263 260 257 254 252 251 248 243 240 239 239 239 238 235 234 238 240 242 246 249 252 257 260 260 260 262 264 267
265 264 263 262 260 260 260 260 265 273 275 272 271 271 270 267 265 264 265 266 267 265 262 262 264 265 266 268 271 274 276 276 273 272 275 279 282 282 282 282 282 281 281 281 281 280 279 278 278 277 276 274 273 272 270 269 267 265 263 259 255 252 250 247 244 240 237 236 236 235 232 230 232 236 239 241 245 250 254 259 259 258 260 262 265 268
266 263 261 261 261 261 260 263 269 273 272 272 272 274 275 271 265 262 264 266 267 267 265 265 267 269 270 273 276 278 280 279 275 273 278 283 285 285 285 284 283 282 282 281 280 279 278 278 278 277 277 275 273 272 270 268 266 264 262 258 253 250 247 243 240 238 236 235 235 234 233 233 235 236 239 243 247 250 254 257 257 258 260 264 267 270
273 270 265 260 261 262 260 261 265 266 267 271 272 274 278 275 266 265 268 268 267 269 270 269 270 271 272 274 277 279 280 279 276 276 281 285 287 287 287 286 285 284 283 281 280 279 278 279 279 278 278 276 274 272 269 267 264 262 260 256 252 248 245 241 238 236 234 234 236 235 233 234 234 236 240 244 247 250 252 255 257 259 263 267 270 273
278 278 273 263 260 261 259 261 264 265 266 270 271 273 277 276 270 268 269 267 267 270 271 270 270 272 273 273 275 276 276 276 277 280 285 288 288 288 287 286 286 285 284 282 281 280 279 280 280 279 278 277 275 272 269 265 263 260 258 254 250 245 242 239 235 232 231 232 232 229 227 229 232 236 241 244 247 249 251 254 259 263 268 271 273 276
278 278 275 270 266 264 262 263 265 266 268 269 270 271 274 276 273 268 265 266 269 272 272 270 271 273 274 274 275 275 276 277 280 284 286 288 289 288 287 286 285 285 284 283 282 281 280 279 279 277 277 276 275 271 267 263 261 258 256 252 247 242 238 235 231 229 228 228 226 223 224 228 232 237 242 245 246 248 251 256 262 267 270 273 275 276
280 278 275 275 273 268 264 264 266 268 267 266 268 270 273 273 271 267 268 272 274 274 275 275 276 276 277 277 278 278 280 283 284 285 287 288 289 288 287 286 285 284 284 284 285 283 280 278 277 275 274 274 273 270 266 262 260 258 254 249 245 239 234 231 227 225 224 224 222 222 225 228 233 239 243 245 248 250 254 259 265 269 271 273 274 276
279 277 273 272 273 272 269 268 267 267 266 266 270 275 274 271 270 271 274 277 276 276 277 278 279 280 280 281 281 282 283 285 286 287 288 288 288 288 287 286 285 285 284 285 286 285 281 277 275 273 272 273 273 270 266 262 260 256 251 246 241 235 230 226 223 222 223 222 220 221 224 227 233 239 242 246 250 253 257 261 266 269 270 271 273 277
277 275 271 271 272 271 268 265 263 266 268 269 272 273 272 271 273 275 276 277 277 278 278 279 281 281 282 282 283 283 284 285 286 288 289 289 289 288 288 287 287 286 285 285 285 285 281 277 274 272 271 271 271 269 264 261 259 253 246 241 236 230 224 221 219 218 217 214 213 215 220 225 231 236 240 247 252 256 259 263 265 268 270 272 276 279
275 273 271 271 270 268 266 265 266 268 269 270 272 272 273 274 276 277 276 277 278 279 278 279 281 283 284 284 283 284 285 285 286 287 288 289 289 289 289 288 287 287 286 285 285 284 280 276 273 272 271 271 270 267 261 258 254 247 239 234 228 221 215 211 210 207 203 202 205 211 215 221 228 233 239 247 251 255 260 263 265 269 273 276 279 282
272 273 272 271 271 272 270 269 270 272 272 273 274 273 274 276 278 278 279 279 279 279 279 280 281 283 285 284 284 284 285 285 285 285 286 288 289 289 289 289 288 287 285 284 283 282 280 276 274 273 273 272 270 264 257 252 246 237 230 224 218 210 204 200 198 195 195 198 205 209 213 220 227 232 237 243 249 255 261 265 270 273 276 279 282 286
275 275 274 271 272 273 271 271 272 275 276 276 274 273 275 277 277 277 278 278 279 280 280 281 282 284 284 285 284 284 284 284 284 284 285 287 289 290 290 289 288 286 284 283 282 281 279 276 274 274 274 272 266 255 246 242 235 224 215 208 200 193 190 190 191 193 197 202 205 208 214 221 225 229 236 243 251 259 264 270 275 278 280 283 286 289
279 280 278 274 272 271 272 273 275 276 276 274 273 274 276 277 276 277 277 278 279 280 281 281 282 282 283 284 283 282 282 282 282 283 285 288 290 291 291 289 288 286 284 282 281 279 278 275 272 271 270 265 255 237 224 220 212 201 191 185 181 180 180 183 187 191 196 199 202 209 216 220 223 231 239 246 253 260 266 273 279 282 285 288 291 293
280 281 280 277 277 276 276 277 279 278 276 274 275 276 277 276 277 278 278 279 280 281 281 281 281 280 281 281 280 281 281 281 281 282 284 288 291 291 290 289 287 285 283 281 278 276 273 266 257 254 253 248 229 208 203 201 193 184 179 175 174 176 178 179 181 184 189 194 201 209 214 218 227 236 242 248 254 262 271 279 283 286 289 292 295 297
279 279 279 279 280 279 278 279 280 280 278 277 278 278 278 279 280 280 280 281 281 281 281 281 281 280 279 277 277 280 280 279 279 281 285 288 291 291 290 288 286 283 279 276 273 268 256 243 240 241 236 223 205 193 189 184 177 173 173 173 173 174 175 176 178 182 186 192 200 207 213 221 230 237 242 250 260 269 278 285 288 289 293 297 299 299
277 278 279 278 278 278 278 279 280 279 279 279 280 280 280 281 282 281 281 282 282 281 281 280 280 280 278 276 276 277 277 277 279 282 286 289 290 289 288 287 284 279 275 271 265 249 231 227 234 229 211 196 183 173 169 166 164 163 164 167 169 171 174 178 181 183 187 193 200 207 214 222 229 237 247 259 269 277 285 290 292 293 296 300 302 302